STARLINK-32576 (62318 NORAD) Tracking and Keplerian Element Data

This shows tracking and keplerian element data for the satellite.

Feedback or suggestion? Click here.




ElementValue
Catalog62318
NameSTARLINK-32576
Epoch Orbit828
Epoch Day34.97090444
Epoch Year2025
RAAN249.8046
Inclination53.1585
Eccentricity0.0001236
Argument of Perigee110.2752
Mean Anonmoly249.8386
Mean Motion15.39590804
Decay Rate-3.308E-05
L11 62318U 24239T 25034.97090444 -.00003308 00000+0 -72826-4 0 9995
L22 62318 53.1585 249.8046 0001236 110.2752 249.8386 15.39590804 8284



Live tracking and technical data element details for STARLINK-32576 (NORAD 62318). STARLINK-32576 can be tracked NOW for your location showing map with azimuth and elevation plus other details from your city location.







IsCatalogInMostPopularTable: catalog: 62318, numindb: 14
Update: records affected: 1



GetName: 62318 STARLINK-32576

Hit Count: updated at: Sun, 18 May 2025 23:53:08 GMT